Overview Statistics Trail Chart Weather Telemetry Raw packets
 

This is the latest recevied weather packets stored in our database for station/object OK2ZAW-21. If no packets are shown the sender has not sent any weather packets the latest 10 day(s).

<< 97 98 99 100 101 102 103 >>
Time Temp. Humidity Pressure Rain* Wind** Luminosity Snow
1787934589 25.56° C 47% 1016.9 hPa - - 423 W/m² -
1787933966 26.11° C 45% 1016.7 hPa - - 424 W/m² -
1787933654 26.67° C 43% 1016.9 hPa - - 424 W/m² -
1787933342 27.22° C 42% 1016.5 hPa - - 423 W/m² -
1787933030 28.33° C 41% 1017.1 hPa - - 424 W/m² -
1787932718 28.33° C 41% 1016.8 hPa - - 424 W/m² -
1787932405 28.33° C 40% 1016.4 hPa - - 424 W/m² -
1787932093 28.33° C 40% 1016.3 hPa - - 424 W/m² -
1787931781 28.89° C 40% 1016.3 hPa - - 424 W/m² -
1787931468 28.89° C 39% 1016.6 hPa - - 424 W/m² -
1787931156 29.44° C 39% 1016.7 hPa - - 424 W/m² -
1787930844 29.44° C 39% 1016.6 hPa - - 424 W/m² -
1787930531 28.89° C 40% 1016.4 hPa - - 424 W/m² -
1787930219 29.44° C 39% 1016.4 hPa - - 424 W/m² -
1787929907 29.44° C 40% 1016.6 hPa - - 424 W/m² -
1787929594 29.44° C 39% 1016.5 hPa - - 424 W/m² -
1787929282 29.44° C 39% 1016.4 hPa - - 424 W/m² -
1787928969 29.44° C 39% 1016.4 hPa - - 424 W/m² -
1787928657 29.44° C 39% 1016.3 hPa - - 424 W/m² -
1787928345 29.44° C 39% 1016.3 hPa - - 424 W/m² -
1787928032 29.44° C 39% 1016.3 hPa - - 424 W/m² -
1787927720 30° C 38% 1016.3 hPa - - 424 W/m² -
1787927407 30° C 39% 1016.5 hPa - - 424 W/m² -
1787926783 30° C 39% 1016.9 hPa - - 424 W/m² -
1787926470 30° C 39% 1016.8 hPa - - 424 W/m² -

* Rain since midnight (hover to see other rain measurements)
** Current wind speed in m/s (hover to see current wind gust speed)